sat.trackr.live / text

‹ back to catalog

STARLINK-5542

NORAD 57075 · 2023-088AD

PAYLOAD ACTIVE UNKNOWN

§ Identity

Operator
Country
US
Launch date
2023-06-22
Launch site
AFWTR
Launch vehicle
Mass (kg)
RCS (m²)

Purposes: comms

External: N2YO · Heavens-Above · Gunter

§ Orbital elements

Epoch: 2026-05-25T01:17:03.308064Z

Period
94.27 min
Inclination
43.0067°
Eccentricity
0.0001524
Mean motion
15.27579340 rev/d
Perigee alt
482.0 km
Apogee alt
484.1 km
Semi-major
6,861.2 km
B*
4.5593e-5
RAAN
24.4849°
Arg perigee
279.8012°
Mean anomaly
80.2668°
Rev number
16,218

§ Raw data

STARLINK-55421 57075U 23088AD  26145.05351051  .00000992  00000+0  45593-4 0  99922 57075  43.0067  24.4849 0001524 279.8012  80.2668 15.27579340162189

JSON: /api/v1/satellites/57075 · /tle

For live sub-satellite position, see the globe view (requires WebGL).

§ Visibility from observer

Set your observer location to see the next 7 days of passes ≥ 10°. The values pass through the URL so the page stays shareable.

No JS? Fill the form by hand. The geolocation button needs JavaScript.